Weather History for Benson, MN

Change the Weather History Date:

Friday, December 20, 2013

  Actual Average Record
Temperature  
Mean Temperature 3 °F -  
Max Temperature 10 °F 22 °F 50 °F (1956)
Min Temperature -4 °F 5 °F -22 °F (1989)
Degree Days  
Heating Degree Days 62    
Moisture  
Dew Point 0 °F    
Average Humidity 82    
Maximum Humidity 92    
Minimum Humidity 72    
Precipitation  
Precipitation 0.00 in - - ()
Sea Level Pressure  
Sea Level Pressure 29.96 in    
Wind  
Wind Speed 5 mph (NNE)    
Max Wind Speed 8 mph    
Max Gust Speed -    
Visibility 10 miles    
Events Snow    
Averages and records for this station are not official NWS values.
T = Trace of Precipitation, MM = Missing Value Source: NWS Daily Summary

Daily Weather History Graph

Daily Weather History Graph

Search for Another Location

Airport:

Trip Planner

Search our weather history database for the weather conditions in past years. The results will help you decide how hot, cold, wet, or windy it might be!

Date:

Astronomy

Dec. 20, 2013 Rise Set
Actual Time 7:58 AM CST 4:42 PM CST
Civil Twilight 7:24 AM CST 5:16 PM CST
Nautical Twilight 6:46 AM CST 5:53 PM CST
Astronomical Twilight 6:10 AM CST 6:29 PM CST
Moon 8:12 PM CST (12/20) 9:45 AM CST (12/20)
Length of Visible Light 9h 51m
Length of Day
8h 43m
Waning Gibbous, 90% of the Moon is Illuminated
Dec 20
Waning Gibbous
Dec 25
Last Quarter
Jan 1
New
Jan 7
First Quarter
Jan 15
Full

Hourly Weather History & Observations

Time (CST) Temp. Windchill Dew Point Humidity Pressure Visibility Wind Dir Wind Speed Gust Speed Precip Events Conditions
12:13 AM 10.4 °F -1.5 °F 6.8 °F 85% 30.06 in 4.0 mi NE 8.1 mph - N/A Snow Light Snow
12:33 AM 10.4 °F 0.8 °F 6.8 °F 85% 30.05 in 3.0 mi NE 5.8 mph - N/A Snow Light Snow
12:52 AM 8.6 °F 0.1 °F 6.8 °F 92% 30.04 in 7.0 mi ENE 4.6 mph - N/A Snow Light Snow
1:13 AM 8.6 °F 0.1 °F 5.0 °F 85% 30.04 in 10.0 mi ENE 4.6 mph - N/A Snow Light Snow
1:33 AM 6.8 °F -3.5 °F 3.2 °F 85% 30.04 in 10.0 mi NE 5.8 mph - N/A Snow Light Snow
1:52 AM 6.8 °F -3.5 °F 3.2 °F 85% 30.04 in 10.0 mi NE 5.8 mph - N/A   Overcast
2:13 AM 6.8 °F -3.5 °F 3.2 °F 85% 30.04 in 10.0 mi NNE 5.8 mph - N/A   Overcast
2:33 AM 6.8 °F -3.5 °F 3.2 °F 85% 30.05 in 10.0 mi NNE 5.8 mph - N/A Snow Light Snow
2:52 AM 6.8 °F -2.0 °F 3.2 °F 85% 30.05 in 7.0 mi NNE 4.6 mph - N/A Snow Light Snow
3:13 AM 6.8 °F -3.5 °F 3.2 °F 85% 30.05 in 10.0 mi NNE 5.8 mph - N/A Snow Light Snow
3:32 AM 5.0 °F -6.9 °F 1.4 °F 85% 30.04 in 10.0 mi NNE 6.9 mph - N/A Snow Light Snow
3:52 AM 5.0 °F -6.9 °F 1.4 °F 85% 30.03 in 10.0 mi North 6.9 mph - N/A Snow Light Snow
4:13 AM 1.4 °F -11.3 °F -0.4 °F 92% 30.03 in 10.0 mi North 6.9 mph - N/A Snow Light Snow
4:32 AM 3.2 °F -7.8 °F -0.4 °F 85% 30.03 in 10.0 mi North 5.8 mph - N/A   Mostly Cloudy
4:52 AM 3.2 °F -9.1 °F -0.4 °F 85% 30.03 in 10.0 mi North 6.9 mph - N/A   Overcast
5:13 AM 3.2 °F -9.1 °F -0.4 °F 85% 30.04 in 10.0 mi North 6.9 mph - N/A   Overcast
5:32 AM 1.4 °F -11.3 °F -0.4 °F 92% 30.03 in 10.0 mi North 6.9 mph - N/A   Overcast
5:53 AM 1.4 °F -11.3 °F -2.2 °F 85% 30.03 in 10.0 mi North 6.9 mph - N/A   Overcast
6:12 AM -0.4 °F -13.4 °F -4.0 °F 85% 30.03 in 10.0 mi North 6.9 mph - N/A   Overcast
6:32 AM -0.4 °F -12.0 °F -5.8 °F 78% 30.03 in 10.0 mi North 5.8 mph - N/A Snow Light Snow
6:53 AM -2.2 °F -15.6 °F -5.8 °F 85% 30.03 in 10.0 mi North 6.9 mph - N/A   Overcast
7:12 AM -2.2 °F -15.6 °F -5.8 °F 85% 30.03 in 10.0 mi North 6.9 mph - N/A   Overcast
7:33 AM -2.2 °F -14.2 °F -5.8 °F 85% 30.03 in 10.0 mi North 5.8 mph - N/A Snow Light Snow
7:53 AM -4.0 °F -14.6 °F -7.6 °F 85% 30.03 in 10.0 mi North 4.6 mph - N/A Snow Light Snow
8:12 AM -4.0 °F -12.4 °F -7.6 °F 85% 30.03 in 10.0 mi North 3.5 mph - N/A   Overcast
8:33 AM -2.2 °F -10.4 °F -7.6 °F 78% 30.02 in 10.0 mi NNE 3.5 mph - N/A   Overcast
8:53 AM -4.0 °F - -7.6 °F 85% 30.02 in 10.0 mi Calm Calm - N/A   Overcast
9:12 AM -4.0 °F - -9.4 °F 78% 30.02 in 10.0 mi Calm Calm - N/A   Mostly Cloudy
9:33 AM -4.0 °F - -7.6 °F 85% 30.01 in 10.0 mi Calm Calm - N/A   Scattered Clouds
9:53 AM -2.2 °F - -7.6 °F 78% 30.01 in 10.0 mi Calm Calm - N/A   Clear
10:12 AM 1.4 °F - -4.0 °F 78% 30.00 in 10.0 mi Calm Calm - N/A   Clear
10:33 AM 3.2 °F -7.8 °F -2.2 °F 78% 30.00 in 10.0 mi North 5.8 mph - N/A   Clear
10:53 AM 5.0 °F -2.1 °F -2.2 °F 72% 30.00 in 10.0 mi NNE 3.5 mph - N/A   Clear
11:12 AM 6.8 °F -2.0 °F -0.4 °F 72% 29.99 in 10.0 mi NNE 4.6 mph - N/A   Clear
11:33 AM 6.8 °F -3.5 °F -0.4 °F 72% 29.98 in 10.0 mi North 5.8 mph - N/A   Clear
11:52 AM 6.8 °F -4.8 °F -0.4 °F 72% 29.97 in 10.0 mi North 6.9 mph - N/A   Scattered Clouds
12:13 PM 6.8 °F -3.5 °F 1.4 °F 79% 29.98 in 10.0 mi NNE 5.8 mph - N/A   Scattered Clouds
12:32 PM 8.6 °F -3.7 °F 1.4 °F 73% 29.97 in 10.0 mi North 8.1 mph - N/A   Clear
12:52 PM 8.6 °F -1.3 °F 1.4 °F 73% 29.96 in 10.0 mi NNE 5.8 mph - N/A   Clear
1:13 PM 8.6 °F -1.3 °F 1.4 °F 73% 29.95 in 10.0 mi NNE 5.8 mph - N/A   Clear
1:33 PM 8.6 °F -1.3 °F 1.4 °F 73% 29.95 in 10.0 mi North 5.8 mph - N/A   Mostly Cloudy
1:52 PM 8.6 °F 2.0 °F 1.4 °F 73% 29.94 in 10.0 mi North 3.5 mph - N/A   Overcast
2:13 PM 8.6 °F 0.1 °F 1.4 °F 73% 29.93 in 10.0 mi North 4.6 mph - N/A   Mostly Cloudy
2:33 PM 8.6 °F 0.1 °F 1.4 °F 73% 29.92 in 10.0 mi NNE 4.6 mph - N/A   Scattered Clouds
2:52 PM 8.6 °F - 1.4 °F 73% 29.92 in 10.0 mi Calm Calm - N/A   Clear
3:13 PM 8.6 °F 2.0 °F 1.4 °F 73% 29.91 in 10.0 mi North 3.5 mph - N/A   Clear
3:32 PM 8.6 °F -1.3 °F 1.4 °F 73% 29.90 in 10.0 mi North 5.8 mph - N/A   Clear
3:53 PM 6.8 °F -2.0 °F 1.4 °F 79% 29.91 in 10.0 mi North 4.6 mph - N/A   Mostly Cloudy
4:13 PM 6.8 °F -3.5 °F 1.4 °F 79% 29.91 in 10.0 mi North 5.8 mph - N/A   Overcast
4:32 PM 6.8 °F -4.8 °F 1.4 °F 79% 29.91 in 10.0 mi North 6.9 mph - N/A   Overcast
4:53 PM 5.0 °F -4.1 °F 1.4 °F 85% 29.90 in 10.0 mi North 4.6 mph - N/A   Overcast
5:13 PM 3.2 °F -7.8 °F -0.4 °F 85% 29.89 in 10.0 mi North 5.8 mph - N/A   Overcast
5:32 PM 1.4 °F -6.2 °F -2.2 °F 85% 29.89 in 10.0 mi North 3.5 mph - N/A   Overcast
5:53 PM 1.4 °F - -2.2 °F 85% 29.89 in 10.0 mi Calm Calm - N/A   Overcast
6:13 PM 1.4 °F - -2.2 °F 85% 29.89 in 10.0 mi Calm Calm - N/A   Overcast
6:32 PM 3.2 °F - -0.4 °F 85% 29.89 in 10.0 mi Calm Calm - N/A Snow Light Snow
6:53 PM 3.2 °F - -0.4 °F 85% 29.89 in 10.0 mi Calm Calm - N/A Snow Light Snow
7:13 PM 3.2 °F - -0.4 °F 85% 29.89 in 10.0 mi Calm Calm - N/A Snow Light Snow
7:32 PM 5.0 °F - -0.4 °F 78% 29.89 in 10.0 mi Calm Calm - N/A Snow Light Snow
7:53 PM 3.2 °F - -0.4 °F 85% 29.88 in 10.0 mi Calm Calm - N/A Snow Light Snow
8:13 PM 3.2 °F - -0.4 °F 85% 29.88 in 10.0 mi Calm Calm - N/A   Overcast
8:32 PM 3.2 °F - -0.4 °F 85% 29.86 in 10.0 mi Calm Calm - N/A Snow Light Snow
8:53 PM 5.0 °F - -0.4 °F 78% 29.86 in 10.0 mi Calm Calm - N/A   Overcast
9:13 PM 6.8 °F - 1.4 °F 79% 29.86 in 10.0 mi Calm Calm - N/A   Overcast
9:32 PM 6.8 °F - 1.4 °F 79% 29.86 in 10.0 mi Calm Calm - N/A   Overcast
9:53 PM 6.8 °F - 1.4 °F 79% 29.86 in 10.0 mi Calm Calm - N/A Snow Light Snow
10:12 PM 6.8 °F - 3.2 °F 85% 29.86 in 10.0 mi Calm Calm - N/A Snow Light Snow
10:32 PM 6.8 °F - 3.2 °F 85% 29.85 in 10.0 mi Calm Calm - N/A Snow Light Snow
10:53 PM 6.8 °F - 3.2 °F 85% 29.85 in 10.0 mi Calm Calm - N/A Snow Light Snow
11:12 PM 6.8 °F - 3.2 °F 85% 29.85 in 10.0 mi Calm Calm - N/A Snow Light Snow
11:32 PM 5.0 °F - 1.4 °F 85% 29.85 in 10.0 mi Calm Calm - N/A   Scattered Clouds
11:53 PM 1.4 °F - -2.2 °F 85% 29.86 in 10.0 mi Calm Calm - N/A   Clear